Theta_e
318 322 324 323 321 320 320 319 319 320 320 320 322 322 322 321 320 321 319 316 317 319 319 320 321 321 321 319 314 312 312 313 314 315 314 312 311 310 309 309 309 308 304 302 302 302 302 303 303 304 304 305 306 307 307 308 308 309 309 309 308 308 308 307 306 306 305 305 304 303 302 300 299 300 301 300 300 300 300 300 300 300 300 300 300 300
319 323 323 322 320 319 320 320 320 320 320 320 321 321 321 322 322 321 320 316 316 320 320 321 321 320 321 321 317 313 312 313 313 314 313 311 311 310 310 309 308 306 303 302 302 302 302 303 303 303 303 304 305 306 306 307 308 307 308 307 307 307 307 306 305 304 303 303 303 302 299 298 298 298 298 297 297 297 297 298 297 297 297 297 297 296
322 322 320 319 320 320 320 320 320 321 321 322 321 322 322 322 322 322 319 316 316 319 321 321 321 320 320 321 319 313 312 313 313 313 313 312 311 310 310 309 307 306 304 303 302 302 303 302 303 302 303 303 304 304 305 305 306 306 306 306 306 306 306 305 304 304 303 301 302 301 298 298 296 294 294 294 293 294 294 294 293 293 293 293 292 292
324 322 319 319 320 320 320 320 320 320 321 323 322 322 323 323 324 323 318 316 316 317 320 320 320 320 319 320 320 315 313 314 314 313 314 313 311 310 310 309 307 306 304 303 303 302 303 302 302 302 302 303 303 303 303 304 305 305 305 305 305 305 304 304 304 304 303 300 300 298 296 295 294 292 292 291 291 291 290 290 290 290 290 290 290 290
323 321 320 320 320 321 321 321 321 321 320 323 324 323 323 323 323 324 322 319 318 318 318 319 321 322 320 321 321 316 314 313 312 311 313 313 311 311 311 309 307 306 305 303 303 303 302 302 302 302 302 302 302 302 302 303 303 303 303 303 304 304 303 303 303 303 301 299 296 294 293 292 291 291 290 290 290 289 289 289 289 289 289 289 289 289
320 320 322 323 321 322 323 322 323 324 321 323 326 324 322 323 323 325 326 324 325 326 321 319 327 330 324 323 321 316 313 312 310 310 311 310 310 310 310 309 308 307 305 303 303 302 302 301 301 301 301 301 301 301 301 302 302 302 302 301 301 301 300 300 300 300 298 296 294 293 293 292 291 291 290 290 289 289 289 289 289 289 289 289 289 289
320 319 322 324 324 325 325 324 325 325 322 323 328 328 324 322 324 326 326 326 329 329 322 320 329 330 324 324 323 316 313 312 311 310 310 309 309 308 308 308 308 307 305 304 302 301 301 301 301 301 300 300 300 300 300 301 301 301 301 300 299 298 298 298 298 297 297 296 295 293 292 291 291 291 291 290 289 289 289 289 289 289 289 289 289 289
320 320 323 325 325 327 325 323 324 324 323 326 329 330 326 322 325 326 325 328 329 327 324 322 325 327 325 324 322 316 313 314 311 309 309 308 308 307 307 307 307 306 305 304 303 302 301 301 301 300 299 299 299 299 300 300 300 300 300 300 299 298 298 297 297 297 297 296 294 293 292 291 291 291 290 290 289 289 289 288 289 289 289 289 289 289
322 322 326 326 325 326 324 323 327 324 324 327 326 326 326 325 325 325 326 328 327 326 327 325 323 327 327 324 320 316 316 317 313 310 309 309 307 306 306 306 305 304 304 303 302 301 300 300 300 298 298 298 298 298 299 299 299 299 299 299 298 298 297 297 297 297 296 295 293 292 291 291 291 290 290 290 290 289 289 288 288 288 288 288 288 288
324 319 322 325 324 324 323 325 330 327 323 325 325 324 325 324 324 324 325 326 326 326 327 326 324 327 329 325 321 318 319 319 316 312 310 308 308 306 306 306 304 303 303 303 301 300 299 299 298 297 297 297 297 298 298 299 299 298 298 298 297 297 296 296 296 295 294 293 292 292 291 291 291 290 290 290 290 289 289 288 288 288 288 288 288 288
318 314 317 322 321 320 321 320 322 325 325 324 325 324 323 323 322 322 323 323 325 326 326 326 324 325 329 329 322 320 321 319 318 315 310 308 308 306 306 305 304 303 303 302 300 298 298 297 297 296 296 296 296 297 297 297 297 297 297 296 296 295 295 295 294 294 293 292 292 291 291 290 290 290 290 290 290 289 289 289 288 288 288 288 288 288
317 318 320 320 319 317 320 320 317 319 322 323 324 325 325 323 322 322 322 322 325 327 326 324 324 324 327 328 321 320 320 318 318 316 311 309 307 306 306 304 303 303 302 301 300 297 296 295 296 295 295 295 295 296 296 296 296 296 295 296 295 294 294 294 293 293 292 292 292 291 291 291 290 290 290 290 290 290 289 289 288 288 288 288 288 288
321 321 322 321 319 318 322 324 318 317 320 323 324 326 328 327 325 326 326 324 326 326 321 320 323 325 325 324 320 320 319 318 318 315 310 309 307 306 306 304 303 303 302 301 299 297 295 294 295 295 294 294 294 295 295 295 296 295 294 295 294 293 293 293 293 292 292 291 291 291 291 291 291 291 291 291 291 290 290 289 288 288 288 288 288 287
326 323 322 321 319 318 321 322 321 321 320 322 324 325 329 330 329 331 329 327 328 326 319 317 322 327 326 323 321 320 318 318 318 315 311 309 307 307 306 304 303 302 301 300 299 298 296 294 295 294 294 294 294 295 295 295 295 294 294 294 293 293 293 293 292 292 292 292 292 291 291 291 291 291 291 291 291 290 290 289 288 288 288 287 287 287
328 329 325 321 320 319 319 320 323 322 319 319 322 323 327 329 331 333 331 330 330 325 319 317 323 329 328 324 319 315 314 315 316 314 311 309 308 307 306 304 303 302 301 300 299 298 296 295 295 294 294 294 294 294 294 293 293 293 293 293 293 292 292 292 292 292 292 292 292 291 291 291 291 291 291 290 290 290 289 288 288 288 287 287 287 286
327 331 325 321 321 319 318 320 321 322 320 320 321 323 325 326 328 330 327 324 324 323 321 321 325 326 322 319 314 311 312 313 314 313 311 310 308 307 305 304 302 302 301 300 300 298 296 295 295 294 294 294 293 293 293 293 293 293 292 292 292 292 292 292 291 291 291 291 291 291 290 290 290 290 290 290 289 289 288 288 288 287 287 287 286 286
328 330 324 319 320 317 318 321 321 323 324 322 322 324 324 324 324 327 326 321 320 325 325 323 324 322 318 318 314 311 313 313 312 312 310 309 308 306 305 303 302 301 301 300 300 298 296 295 295 294 294 294 293 293 293 293 292 292 292 291 291 291 291 291 291 291 291 291 290 290 290 290 290 289 289 289 289 288 288 288 288 287 286 286 286 286
329 328 322 320 320 317 318 321 321 322 323 322 324 324 322 324 323 323 326 325 325 327 326 324 324 322 321 322 315 312 314 313 311 312 310 308 308 306 305 304 302 302 301 300 299 297 295 295 295 294 294 293 293 292 292 292 292 292 291 291 291 291 290 290 290 290 290 290 290 290 290 289 289 289 289 289 288 288 288 287 287 287 286 286 286 286
328 328 322 318 320 317 315 319 321 321 320 320 322 322 323 327 326 323 324 327 328 328 326 326 325 323 322 323 318 315 316 314 310 311 311 308 307 306 305 304 302 302 301 300 299 298 296 295 294 294 294 293 292 292 292 292 292 291 291 291 290 290 290 290 290 290 290 289 289 289 289 289 289 289 289 288 288 288 287 287 287 286 286 286 286 286
326 329 325 317 316 316 315 319 323 322 319 316 317 320 322 324 325 325 324 325 328 327 326 328 328 326 323 322 322 319 316 313 310 309 310 309 307 306 305 304 302 302 301 300 299 298 296 295 294 294 293 293 292 292 291 291 291 291 290 290 290 290 290 290 289 289 289 289 289 289 289 289 288 289 288 288 288 287 287 287 286 286 286 286 286 285
324 327 327 318 315 317 318 319 321 321 319 317 318 321 322 320 322 325 324 323 325 326 327 326 327 328 322 318 320 319 315 313 311 309 309 309 308 307 305 304 303 302 301 300 299 298 296 295 294 294 293 292 292 291 291 291 291 290 290 290 290 290 289 289 289 289 289 289 289 289 289 288 288 288 288 288 287 287 287 286 286 286 286 286 285 285
324 324 325 320 317 318 319 318 317 319 320 318 318 319 320 320 321 324 325 323 322 324 326 326 327 328 321 316 318 319 316 314 311 309 309 309 308 307 306 305 303 302 301 300 299 298 296 294 294 293 293 292 291 291 290 290 290 290 290 290 289 289 289 289 289 289 289 289 289 289 288 288 288 288 288 287 287 287 287 286 286 286 286 285 285 285
326 325 324 323 320 318 318 317 317 319 319 319 319 319 320 320 320 323 325 325 324 323 324 325 326 326 320 316 316 319 320 316 312 310 310 309 308 307 307 305 304 303 302 301 300 298 296 295 294 293 292 292 291 290 290 290 290 290 290 289 289 289 289 289 289 289 289 289 288 288 288 288 288 287 287 287 287 287 286 286 286 286 286 285 285 285
325 325 324 325 322 318 316 316 316 316 316 319 320 319 320 320 319 322 323 323 324 324 324 324 324 322 319 316 314 313 316 317 314 312 310 309 308 308 308 306 305 304 303 301 300 297 295 295 294 293 292 291 290 290 290 290 290 290 290 289 289 289 289 289 289 289 288 288 288 288 288 288 287 287 287 287 287 286 286 286 286 286 285 285 285 285
322 323 323 325 326 323 320 318 318 317 315 318 319 319 319 319 320 321 320 320 322 324 324 324 324 324 320 315 312 311 312 314 313 313 312 310 309 308 308 307 306 304 303 302 300 298 296 294 293 292 292 291 290 290 289 289 289 289 289 289 289 289 289 288 288 288 288 288 288 288 288 287 287 286 287 287 287 286 286 286 286 286 285 285 285 284
323 323 322 325 327 327 326 324 322 319 316 316 317 318 318 319 321 321 320 321 322 323 324 323 323 324 320 314 312 312 312 311 311 312 312 312 310 309 309 308 307 305 304 302 300 299 296 294 293 292 292 291 290 290 289 289 289 289 289 289 289 289 288 288 288 288 288 288 288 287 287 287 286 286 287 287 287 286 286 286 286 286 285 285 285 284
321 321 321 324 326 326 327 327 323 320 318 317 317 318 318 318 320 321 320 321 321 322 323 322 321 324 322 317 315 315 314 312 312 311 313 313 311 309 309 309 307 306 304 302 300 298 297 295 294 292 292 291 290 290 290 289 289 289 289 289 289 288 288 288 288 288 287 287 287 287 287 287 286 286 287 287 287 286 286 286 286 285 285 285 284 284
320 322 321 323 324 324 326 327 323 320 320 319 318 318 317 318 319 320 321 321 321 322 322 322 323 324 322 319 317 317 315 313 313 312 311 312 312 310 309 309 309 307 304 302 300 299 298 296 294 293 292 292 291 290 289 289 289 289 289 289 289 288 288 288 288 288 287 287 287 287 287 286 286 286 287 287 287 286 286 286 286 285 285 284 284 284
320 322 321 321 322 322 323 324 322 321 320 319 319 318 317 317 318 319 320 320 321 322 322 323 326 324 321 319 317 315 314 313 313 312 310 310 312 311 310 310 309 308 305 302 301 299 298 297 295 293 292 292 291 290 289 289 289 288 288 288 288 288 288 288 288 287 287 287 287 287 286 286 285 286 286 287 287 286 286 286 286 285 285 284 284 284
319 321 320 321 322 321 321 322 321 320 320 319 320 320 317 317 317 318 318 318 319 320 319 321 324 322 320 319 316 315 316 313 313 312 310 310 311 311 310 309 308 307 304 302 301 299 299 297 295 294 293 292 291 290 289 289 289 288 288 288 288 288 288 288 288 287 287 287 287 286 286 286 285 285 286 287 287 286 286 286 286 285 285 284 284 284
318 320 320 321 321 320 320 320 320 320 319 319 320 320 319 317 316 316 317 317 317 319 317 319 321 319 319 320 319 317 317 315 312 312 310 309 309 309 309 308 307 306 304 302 301 301 299 298 296 294 293 292 291 290 290 289 289 288 288 288 288 288 288 288 288 287 287 287 286 286 286 285 285 285 286 287 287 286 286 286 286 285 285 284 284 284
315 317 319 319 320 320 319 320 320 318 317 318 318 318 318 318 317 316 316 316 317 318 318 318 319 318 319 322 319 315 315 314 313 312 311 309 308 309 308 308 306 305 304 303 302 301 300 299 297 295 294 293 292 291 290 289 289 288 288 288 288 288 288 288 287 287 287 286 286 286 286 285 285 285 286 287 287 286 286 286 286 285 285 284 284 283
313 315 317 318 320 320 319 320 319 316 317 319 319 318 317 316 318 317 316 316 316 316 318 318 317 318 319 319 317 315 316 316 315 316 315 313 310 308 308 307 306 305 304 303 302 301 300 299 297 296 295 294 292 291 290 290 289 289 289 288 288 288 288 288 287 287 286 286 286 286 286 285 285 285 286 287 287 286 286 286 286 285 285 284 284 283
311 314 316 317 320 320 317 317 317 318 321 321 318 318 317 316 317 318 317 316 315 315 315 315 316 319 319 317 317 318 318 318 319 319 318 314 310 308 307 306 305 304 303 302 303 302 300 298 297 296 296 294 293 292 291 291 290 289 289 288 288 287 287 287 287 286 286 286 286 286 285 285 285 286 286 286 287 286 286 286 286 285 285 284 283 283
311 313 315 316 318 318 314 315 319 321 321 317 311 312 314 315 316 316 316 316 314 314 315 314 315 318 318 316 316 317 318 318 317 315 313 312 310 309 309 307 305 305 304 303 303 302 299 297 297 297 296 295 294 293 292 291 290 290 289 288 288 287 287 287 287 286 286 286 286 285 285 285 285 285 286 286 286 286 286 286 286 285 285 284 284 284
313 313 314 315 316 314 313 318 322 320 316 311 307 306 310 315 316 316 317 316 314 314 314 314 313 314 316 316 313 312 313 311 309 309 310 311 312 310 310 308 307 306 305 303 302 300 298 297 298 297 296 296 295 293 292 291 291 290 289 289 288 288 287 287 286 286 286 286 286 285 285 285 285 285 285 285 286 286 286 286 285 285 285 284 283 283
313 314 314 315 316 314 315 317 318 318 316 313 310 308 311 317 317 317 318 318 316 315 314 314 314 313 314 315 310 307 307 307 307 309 308 308 309 309 309 308 307 305 303 301 299 299 298 298 298 298 297 296 295 294 293 292 291 290 290 289 288 288 287 287 286 286 286 286 286 285 285 286 285 285 285 285 286 286 286 286 286 285 284 284 283 283
310 312 313 315 316 314 315 316 316 318 319 316 312 310 309 312 315 317 319 318 317 317 316 315 315 314 314 311 306 305 307 309 310 311 310 307 306 306 306 303 300 299 300 299 299 299 299 299 298 298 297 296 295 295 294 292 291 291 290 289 288 288 287 287 286 286 286 286 286 286 286 286 285 285 285 285 286 287 287 286 286 285 284 284 283 283
306 308 310 313 315 314 314 316 317 318 318 315 311 305 302 307 314 317 317 316 315 316 317 316 315 315 314 309 304 306 310 311 312 311 307 305 304 304 304 300 296 296 297 298 298 298 298 298 298 297 297 296 295 295 294 293 291 291 290 289 288 288 287 287 287 287 286 286 286 286 286 286 285 285 285 286 286 287 287 286 286 285 284 283 282 282
307 308 310 312 315 314 314 315 316 316 315 312 307 302 300 304 311 316 317 314 311 309 310 313 313 313 312 307 304 307 311 312 312 307 300 299 300 299 299 298 295 293 294 295 296 297 296 297 296 296 296 295 295 294 293 293 291 290 290 289 288 288 287 287 287 287 287 286 286 286 286 285 285 285 285 286 287 287 287 286 285 284 283 282 281 281
307 308 309 311 313 313 314 315 315 315 313 308 304 301 300 303 310 315 314 310 306 303 302 308 312 310 308 305 304 307 308 305 302 298 295 297 299 295 293 293 293 292 293 293 294 294 294 295 295 295 295 294 294 293 293 292 291 290 290 289 288 288 288 288 288 287 287 287 286 286 285 285 285 285 286 286 286 286 286 285 284 284 283 282 281 281
309 309 309 311 312 313 314 314 314 315 312 305 301 299 300 306 313 312 304 300 302 303 301 305 310 308 305 305 304 304 301 296 295 295 295 296 297 295 292 290 290 290 291 291 292 292 293 293 293 293 293 293 293 293 292 292 291 290 290 289 289 290 290 290 289 287 287 286 286 285 285 285 285 285 285 285 285 285 285 284 283 282 282 281 280 280
309 310 310 310 311 312 313 313 315 316 308 302 300 300 302 309 312 305 298 296 299 302 301 303 306 305 305 305 302 299 297 295 294 294 294 294 294 293 291 289 289 289 289 290 290 291 291 291 291 291 292 292 292 292 292 291 291 290 289 289 291 292 291 290 288 287 287 286 286 286 285 285 285 285 284 284 284 284 284 282 281 280 280 279 279 279
310 311 311 312 312 312 313 313 313 311 304 301 303 305 306 308 304 300 300 300 298 298 301 302 302 302 304 305 301 297 296 296 295 294 294 294 293 292 291 289 288 288 289 290 290 290 291 291 290 290 290 290 291 291 291 291 291 289 289 291 293 292 291 289 288 287 287 287 286 286 285 285 284 284 284 283 283 282 282 281 280 279 279 278 277 278
310 309 310 312 311 311 312 311 307 303 300 299 302 304 304 303 299 298 302 302 298 298 300 301 301 300 300 302 301 297 296 295 294 294 294 293 292 292 291 290 289 289 289 290 290 290 291 291 290 290 290 289 290 290 290 291 291 290 290 293 293 292 291 290 288 287 287 287 286 286 285 284 284 283 283 282 282 281 281 280 279 278 278 277 276 276
304 303 305 308 310 309 307 305 302 300 299 299 299 299 300 300 298 298 301 302 301 299 298 299 301 299 297 299 299 296 296 295 294 294 294 294 293 291 289 289 289 289 289 289 290 290 290 290 290 290 290 289 290 290 291 291 291 291 292 293 293 292 291 290 288 288 287 287 286 286 285 284 283 282 281 281 280 280 280 279 279 278 277 276 275 276
300 300 302 305 309 310 306 301 299 299 299 299 299 297 297 297 296 296 299 301 299 297 296 297 299 298 296 298 298 297 296 295 294 294 294 294 294 293 289 288 288 289 290 290 290 290 290 290 289 289 290 290 290 291 291 291 291 292 292 292 291 291 291 289 288 288 287 286 286 285 284 283 282 281 280 279 279 278 278 278 278 277 277 276 276 276
302 301 303 304 305 305 301 296 294 295 296 297 298 298 298 299 296 294 295 296 295 295 294 295 296 297 296 296 297 296 296 295 294 295 294 294 295 293 289 287 288 289 290 290 290 289 289 289 289 289 290 290 291 291 291 291 291 291 291 291 291 290 289 288 288 287 287 286 285 284 283 282 281 280 279 279 278 278 277 277 276 276 277 277 277 277
302 301 303 304 302 299 296 293 293 295 295 295 296 297 297 299 298 295 293 292 293 294 294 293 293 294 295 295 295 295 295 294 295 295 294 293 294 292 289 288 289 290 290 289 289 289 289 289 289 290 290 290 291 291 291 291 291 291 290 290 289 288 288 287 286 286 285 284 283 283 282 281 280 279 279 278 277 277 276 276 276 276 276 276 277 277
301 302 302 302 302 302 299 295 295 299 300 297 297 297 297 297 298 296 295 294 294 294 295 294 293 291 290 292 293 294 295 295 293 293 294 293 291 290 289 289 289 290 289 289 289 289 289 289 289 290 290 290 290 290 290 290 290 290 289 289 288 287 286 286 285 284 284 283 282 281 281 280 279 278 277 277 276 275 274 274 274 274 275 275 275 276
300 301 301 301 303 303 301 297 297 301 302 298 297 298 297 296 296 296 296 296 295 295 295 296 295 293 291 290 290 292 296 296 291 291 293 293 290 289 290 290 290 290 290 289 289 289 288 288 288 288 289 290 290 290 290 290 290 289 288 287 286 286 285 284 284 283 283 282 281 281 280 279 278 277 276 275 275 274 273 273 272 272 273 273 274 274
Wind_Speed
2 3 4 5 6 7 8 10 10 9 8 5 2 3 5 4 5 4 1 3 1 1 5 6 6 9 7 6 9 9 7 7 8 7 7 6 6 6 6 6 6 6 6 10 10 8 8 8 8 9 9 9 9 10 11 12 13 14 15 16 15 15 15 17 19 20 21 23 25 26 27 27 27 27 27 27 27 26 26 25 25 25 24 24 24 24
1 4 7 8 8 8 8 9 10 10 9 6 3 4 5 4 6 5 1 4 2 1 4 6 7 10 9 7 7 10 8 9 10 9 9 8 7 6 7 8 6 6 7 9 10 10 10 9 9 10 10 10 9 10 11 12 13 12 13 14 14 14 15 16 17 18 20 21 24 26 28 28 28 28 29 29 29 28 28 28 28 28 27 27 27 27
2 6 9 10 8 8 6 3 4 7 6 5 3 3 4 4 5 3 2 3 2 1 3 5 7 9 9 8 6 11 11 9 10 9 9 9 9 7 7 8 7 7 7 7 9 11 11 10 10 10 11 11 10 10 11 10 11 11 11 12 13 14 15 16 17 19 22 23 25 28 29 30 31 31 31 31 31 30 31 31 30 30 29 29 29 28
5 6 9 11 9 8 5 1 2 3 3 3 3 3 4 4 4 3 1 2 3 2 4 5 7 8 8 9 8 10 8 3 2 2 2 4 7 7 7 7 7 8 8 7 8 10 13 12 11 11 11 11 11 10 11 11 11 12 11 11 13 15 16 18 19 21 25 27 29 31 32 33 33 32 32 32 32 31 32 31 31 30 30 29 29 29
8 4 4 10 9 7 5 4 4 3 3 5 6 5 5 4 6 5 3 3 3 4 5 3 7 7 7 12 10 4 4 3 3 3 3 2 3 6 6 6 7 7 8 8 7 9 12 13 12 12 11 11 11 12 12 12 12 13 14 14 15 17 19 21 23 26 29 32 33 32 31 32 32 31 30 31 30 30 31 30 30 29 28 28 28 28
10 5 3 7 7 6 6 5 6 6 4 4 6 8 9 8 6 5 3 2 2 3 3 2 3 5 4 9 7 4 3 3 4 4 4 3 3 6 6 6 7 7 7 7 8 10 12 14 13 13 12 12 12 13 13 13 14 15 17 18 21 22 23 25 27 28 29 29 27 26 27 28 30 29 27 27 27 28 29 29 28 28 27 27 27 27
3 3 3 5 6 6 6 5 5 7 4 4 4 4 7 7 4 3 5 3 2 3 1 3 2 5 5 4 4 6 6 6 6 6 7 7 5 6 6 6 6 7 7 7 8 11 13 14 14 13 13 13 14 14 14 15 16 17 18 21 24 24 24 24 23 21 20 20 21 23 27 28 30 29 25 24 26 27 27 27 27 26 26 25 25 25
3 5 3 5 6 5 6 5 5 8 4 3 3 3 2 2 1 1 2 3 3 3 2 4 3 5 8 5 6 8 7 7 8 9 8 8 9 8 8 8 8 7 7 8 8 9 13 15 15 15 14 14 15 15 15 16 17 18 19 21 23 23 22 20 18 16 16 20 24 27 29 29 29 30 26 24 25 26 26 26 26 25 24 24 24 23
3 7 6 7 7 5 5 3 5 9 5 2 1 3 5 4 1 1 2 3 3 4 3 5 4 4 8 3 6 8 7 8 10 11 11 10 11 10 10 10 10 8 8 8 8 9 13 16 16 16 15 15 15 16 17 18 19 19 20 21 22 22 20 19 17 18 20 24 28 30 32 31 29 29 27 25 24 24 24 25 24 24 23 23 23 23
1 3 4 6 6 5 3 2 1 6 5 3 3 5 5 3 2 1 1 1 2 5 6 6 6 4 7 2 5 4 4 9 11 10 11 11 11 11 11 11 11 10 8 8 9 12 14 16 17 18 17 16 16 17 18 19 20 20 21 21 21 20 19 19 20 23 25 28 30 31 33 33 30 28 27 25 24 22 22 23 22 22 22 21 22 22
3 1 0 2 2 2 4 5 5 2 5 6 4 5 4 1 2 2 1 1 1 7 7 9 10 6 5 3 6 5 5 8 8 6 8 10 10 11 10 11 11 10 9 8 9 13 16 17 17 17 17 17 17 17 18 19 20 20 21 21 21 20 21 22 24 27 28 29 30 31 32 33 31 29 27 25 23 21 21 22 21 21 21 21 20 20
3 1 0 0 1 3 5 4 4 4 3 5 4 4 3 1 3 2 1 2 2 7 4 9 13 11 7 5 4 5 4 7 8 8 11 12 12 11 10 10 10 10 9 9 8 11 15 16 16 17 17 17 17 17 18 19 20 20 21 22 22 22 23 25 26 28 29 29 29 30 30 31 29 28 27 25 23 21 20 20 19 19 20 19 19 18
2 4 4 1 2 3 5 3 3 5 2 3 4 5 4 1 1 0 2 3 5 7 3 3 7 9 9 7 6 6 3 3 4 9 12 14 14 12 11 11 9 9 9 9 9 8 11 14 15 17 18 18 18 18 19 19 20 21 21 23 24 25 25 26 27 28 29 29 29 29 29 29 27 27 26 24 22 20 18 18 18 18 19 18 18 17
2 4 6 4 2 5 8 6 3 1 3 6 6 6 5 3 2 3 4 3 5 5 3 2 1 3 4 5 10 10 3 3 2 8 12 14 15 13 12 11 9 10 9 8 9 8 9 14 16 18 19 19 19 20 20 21 21 22 23 24 26 26 25 26 28 28 29 29 28 28 28 28 28 27 25 23 22 20 19 18 18 18 18 17 17 16
4 4 7 9 3 7 13 10 7 5 5 8 6 5 5 5 3 4 4 3 3 2 3 2 2 3 2 2 4 3 3 5 5 5 10 10 11 11 10 10 10 10 9 8 8 8 11 16 17 18 20 20 21 21 22 22 23 24 25 26 27 27 27 27 28 29 29 28 27 27 28 28 27 26 25 23 22 22 21 19 19 18 16 16 16 15
7 5 6 8 4 11 14 9 6 8 3 5 4 4 6 4 3 3 1 2 1 2 2 2 3 4 3 1 1 3 5 5 6 5 10 9 10 11 10 10 10 10 10 9 9 8 12 17 18 19 21 21 22 23 23 24 24 26 26 27 28 28 28 28 29 29 29 28 28 28 28 27 26 26 25 24 23 22 20 19 18 17 16 15 15 14
6 3 2 4 3 8 8 6 7 6 3 3 4 6 4 2 3 4 2 2 2 4 4 4 3 4 1 1 2 4 4 3 3 2 9 10 11 12 10 10 11 11 11 10 9 9 13 18 19 20 21 22 24 24 24 25 26 27 28 28 28 28 28 29 29 29 29 29 29 27 26 26 25 25 25 25 23 21 20 18 18 17 16 15 14 13
4 1 1 1 2 2 2 0 2 1 3 4 4 5 3 4 1 1 2 2 1 6 5 5 6 4 3 3 1 5 4 3 5 5 7 9 11 12 10 10 11 11 11 10 10 10 14 18 20 21 22 23 25 26 26 26 26 27 29 29 30 30 30 29 29 29 29 29 29 27 26 26 25 25 24 23 22 20 19 19 18 17 15 14 12 11
3 2 3 1 1 0 3 1 2 3 2 4 2 3 3 1 1 3 2 3 4 6 5 3 7 6 6 5 4 7 9 9 8 8 9 11 12 11 10 11 11 11 11 10 10 10 13 18 21 22 23 24 25 26 26 26 26 27 28 29 30 31 30 30 29 29 29 28 28 28 27 26 25 24 23 21 20 20 19 18 17 15 14 13 11 10
2 3 3 3 2 2 1 1 4 3 1 1 2 3 1 2 3 4 3 2 3 4 5 3 4 4 6 7 10 12 13 12 12 10 11 12 13 12 11 12 12 12 12 12 11 10 12 18 22 24 25 26 26 26 26 26 26 27 28 29 30 30 30 30 29 30 29 29 29 28 27 26 25 23 22 20 20 19 18 17 15 14 13 12 10 9
2 3 3 2 3 2 2 5 9 10 8 4 2 3 3 2 1 1 2 3 3 3 4 4 5 5 3 3 10 15 13 12 14 14 12 12 13 12 11 12 13 13 13 12 12 11 14 20 22 24 25 25 26 26 26 27 27 28 29 29 30 30 30 30 30 30 30 30 30 29 28 27 25 23 21 20 19 18 17 16 14 13 11 11 10 9
3 3 3 1 1 4 5 6 8 9 9 9 8 8 8 6 4 2 4 4 4 4 3 3 6 6 3 2 3 8 9 11 14 14 12 12 13 13 12 13 14 14 13 13 12 12 15 20 22 24 24 25 26 26 27 28 28 28 29 29 30 30 31 31 31 31 31 31 30 29 28 26 24 23 22 21 19 17 16 15 13 12 11 10 9 8
3 3 4 3 3 4 4 2 2 2 2 3 4 6 6 6 6 6 6 4 4 3 1 1 5 6 3 2 3 2 3 6 11 12 11 11 12 12 12 12 13 12 12 13 12 12 16 20 22 24 25 26 26 27 28 29 28 29 29 29 30 31 31 31 31 31 31 31 30 29 28 26 24 23 22 21 19 17 15 14 12 11 10 9 9 7
4 3 5 3 1 1 1 0 2 3 2 1 3 4 7 9 9 7 5 2 2 4 3 2 6 6 2 2 3 2 3 4 6 10 10 9 9 10 11 12 12 11 11 11 11 12 16 20 22 23 25 26 27 27 28 29 28 29 29 30 31 31 32 31 31 31 31 31 30 29 27 26 25 24 22 20 19 17 15 14 12 10 9 8 8 7
3 3 4 2 2 2 1 1 2 2 1 3 4 6 9 10 9 5 1 1 4 7 7 5 8 6 2 1 1 1 3 5 4 7 9 9 8 8 9 9 10 11 11 12 12 11 14 18 21 24 25 26 27 28 29 29 29 30 30 31 32 32 32 32 31 32 32 31 30 29 28 26 25 24 22 20 19 17 15 14 12 11 9 8 7 6
6 5 7 7 9 10 7 4 4 3 3 3 5 9 12 12 12 8 3 4 9 6 8 9 11 5 2 1 2 1 3 4 3 4 7 9 9 8 8 8 9 10 11 13 14 13 13 15 19 23 25 26 27 29 30 30 30 31 30 31 32 32 32 32 32 32 32 32 31 30 28 27 26 25 23 21 19 17 15 14 12 11 10 8 7 6
3 3 10 13 13 13 9 4 4 7 7 8 10 13 14 14 13 8 5 9 9 4 6 13 10 5 5 4 5 5 5 5 4 5 5 6 9 9 9 8 9 9 10 12 12 11 12 14 17 22 25 26 28 30 31 31 31 32 32 32 32 32 33 33 33 33 32 32 31 30 29 28 27 26 23 21 19 17 16 15 13 11 10 8 7 5
3 4 12 15 16 15 8 3 4 8 10 13 14 15 15 14 14 12 12 12 7 4 12 10 8 10 11 7 8 7 7 6 7 8 7 6 8 8 8 8 8 9 9 10 11 12 14 14 16 21 25 27 29 30 30 31 32 33 33 33 33 33 34 34 34 33 33 32 32 31 30 29 28 26 24 22 20 18 17 16 14 12 10 9 7 5
4 6 9 12 16 17 9 5 5 6 5 7 11 15 16 16 18 18 20 17 9 9 16 7 12 15 12 8 11 9 8 9 8 8 8 7 7 7 9 10 9 9 10 12 14 15 16 15 15 20 26 28 29 30 30 31 32 33 33 33 34 34 35 35 34 34 33 33 32 32 31 29 28 27 25 23 21 20 19 17 15 13 12 10 8 6
3 5 6 9 13 17 13 9 6 6 3 4 7 12 15 18 22 21 22 21 14 17 20 7 6 12 6 6 11 8 7 7 5 6 7 9 8 9 10 10 10 10 11 13 15 15 15 15 16 21 24 26 29 31 32 33 34 34 34 34 35 35 35 36 35 35 34 34 33 32 31 29 29 28 27 25 23 22 20 18 16 14 13 11 8 7
3 4 4 6 8 14 13 12 8 6 7 7 8 11 13 15 18 18 20 18 14 19 22 12 10 12 3 4 3 3 5 6 7 7 7 8 8 9 9 9 9 10 11 13 14 14 13 13 15 19 23 27 31 34 33 33 34 34 34 35 36 36 36 36 36 36 35 34 33 32 31 30 29 29 27 26 24 23 22 19 18 16 14 12 10 9
4 3 1 5 7 12 10 11 9 4 2 7 14 18 16 11 11 15 17 15 15 18 19 15 15 12 4 5 4 3 4 7 7 7 7 6 7 9 9 9 10 10 12 12 12 12 13 13 15 20 25 30 32 33 34 34 34 34 35 37 38 38 37 37 37 36 35 34 33 32 32 32 31 30 29 28 26 25 23 20 19 18 16 13 12 11
5 3 1 5 7 9 4 7 7 4 1 7 15 18 16 13 11 13 14 15 17 16 13 13 13 8 5 7 5 2 3 5 5 6 6 6 7 8 9 10 11 12 12 11 11 12 14 16 19 24 28 30 32 34 36 36 36 37 39 39 38 38 38 37 37 36 35 34 34 34 34 34 33 32 31 30 28 27 24 22 21 19 17 15 14 13
5 5 4 4 4 4 1 6 6 4 7 8 6 5 11 17 18 16 15 16 16 14 11 10 5 4 6 8 8 7 5 4 5 5 4 5 7 8 9 10 11 10 10 10 11 11 12 15 20 24 27 29 31 33 34 34 35 35 36 36 36 37 38 38 37 36 35 35 35 35 35 35 35 34 33 31 30 28 26 24 23 21 19 17 16 15
8 7 5 3 2 1 3 6 4 7 9 5 4 4 4 13 18 19 17 14 13 13 13 11 6 5 6 6 5 6 6 5 5 5 4 6 8 9 10 9 9 8 8 9 9 9 11 16 20 22 25 29 31 31 31 34 34 32 32 34 36 37 38 38 37 36 36 36 35 36 36 35 35 35 34 32 32 30 28 26 25 23 21 20 18 17
10 9 4 3 3 2 3 7 6 4 2 1 4 4 1 3 8 11 12 13 13 12 11 12 11 6 6 5 3 2 3 3 2 3 5 7 7 8 8 8 8 8 8 9 10 11 15 20 23 24 26 28 29 31 32 34 34 33 33 35 36 37 37 37 36 36 36 36 35 36 37 37 37 37 35 34 33 31 30 28 27 25 24 22 21 19
7 8 5 4 4 3 4 6 3 4 3 1 1 2 2 4 7 9 8 10 10 10 9 9 10 7 6 6 4 4 4 3 3 5 5 6 6 5 5 6 7 8 8 9 12 14 17 20 22 23 24 25 28 32 33 33 34 33 33 34 35 36 35 35 35 36 36 36 37 38 39 39 39 38 37 36 34 33 32 31 29 27 26 24 23 22
2 4 5 5 4 3 3 3 2 5 6 3 4 4 2 1 5 8 4 4 4 7 10 9 10 9 6 6 5 5 5 2 4 7 6 6 6 4 4 3 5 8 9 10 11 12 14 17 19 21 23 25 28 31 32 33 34 34 33 34 34 34 33 34 36 37 38 38 39 40 40 40 41 40 39 37 36 34 34 32 31 30 28 26 25 22
3 1 2 3 3 3 3 4 5 6 4 2 5 4 3 1 5 8 3 4 4 4 7 9 10 8 7 7 6 6 5 3 6 6 4 5 7 5 5 5 7 8 10 11 12 13 14 16 17 19 22 24 27 29 30 32 34 33 32 32 32 32 33 35 38 38 38 39 40 41 41 41 42 41 39 38 37 35 35 34 33 31 30 28 25 22
3 1 1 3 3 4 5 4 3 2 1 3 5 3 3 1 6 9 1 4 3 3 2 5 8 5 7 8 7 7 6 6 6 4 2 2 5 4 5 6 7 9 11 11 12 14 15 16 18 19 21 24 25 26 28 30 32 31 30 29 30 31 34 37 39 38 38 40 40 40 41 42 42 41 40 39 37 36 35 35 34 32 31 28 26 23
2 1 1 3 3 4 5 3 1 1 2 4 5 4 4 1 4 4 4 3 3 2 2 2 5 4 6 8 6 5 4 3 3 2 3 5 6 5 6 9 10 10 11 12 13 14 15 15 16 18 19 20 21 23 25 28 29 28 27 27 28 32 36 38 38 37 38 38 38 39 40 41 42 41 40 39 37 36 35 36 35 33 31 29 26 24
3 2 1 3 3 2 3 2 1 2 3 3 3 1 2 2 2 3 3 1 3 5 2 2 5 5 6 7 6 4 3 4 5 5 5 6 6 5 7 10 11 10 10 11 11 12 14 13 13 14 15 16 19 21 23 26 27 27 25 26 29 33 36 36 36 36 36 36 37 38 39 40 41 40 39 38 37 35 35 35 35 33 31 29 27 25
4 4 2 4 3 2 1 3 2 3 3 7 7 2 1 2 4 4 3 3 2 5 4 3 4 5 6 6 4 4 5 5 5 6 6 6 6 6 6 8 9 9 10 10 10 10 12 13 12 13 14 16 18 20 22 25 27 26 26 28 31 33 33 33 33 32 33 34 35 37 37 38 39 38 38 38 37 36 35 35 34 32 30 28 27 25
4 4 3 3 4 3 4 5 3 2 5 7 7 3 3 4 4 5 5 3 2 3 5 4 4 5 6 6 6 5 5 5 5 6 6 5 6 6 6 7 9 10 10 10 10 11 12 13 13 13 13 15 18 20 22 25 25 26 27 27 27 28 29 29 29 29 30 32 34 35 35 36 37 37 37 37 36 35 35 34 33 32 30 29 27 26
4 4 3 3 4 4 4 4 3 2 5 5 2 1 4 4 2 3 6 5 3 4 5 4 5 5 5 6 6 5 4 4 5 5 5 5 5 5 6 6 8 9 9 8 10 11 12 12 14 14 14 15 17 19 21 22 23 25 24 22 21 23 25 26 26 27 29 30 31 32 33 33 34 35 35 35 36 36 36 35 34 32 31 29 28 27
1 1 2 1 2 2 1 2 3 3 5 4 1 1 3 4 3 3 5 5 4 5 5 4 5 6 6 6 6 5 4 5 5 5 5 6 5 5 6 6 7 9 10 9 10 12 12 11 12 13 14 14 15 17 19 20 21 21 19 17 18 20 22 23 24 26 27 28 30 31 31 32 32 33 33 34 34 35 35 36 35 34 32 30 29 28
2 2 2 1 3 3 2 2 3 4 5 5 3 2 3 3 2 3 4 4 4 5 5 5 5 6 6 6 6 6 5 6 6 5 4 5 5 6 6 6 8 10 12 12 13 14 14 13 13 14 14 15 15 16 17 18 19 19 18 18 18 19 20 21 23 25 27 28 29 30 31 32 32 33 33 33 34 34 34 35 35 34 33 32 31 30
2 4 3 3 4 2 2 1 2 1 1 2 3 2 2 3 2 3 4 4 5 6 5 5 6 6 5 5 6 6 6 6 6 6 5 5 5 5 6 8 10 12 12 12 12 13 15 16 16 16 16 17 16 16 17 17 18 19 20 21 20 19 19 21 23 25 27 28 29 30 31 32 33 33 33 34 34 35 36 36 36 36 36 36 34 32
4 4 3 3 3 2 1 1 2 2 1 3 4 4 4 4 5 4 4 5 5 6 6 5 4 5 6 6 6 7 6 6 7 6 6 5 5 5 7 10 12 13 13 13 13 15 17 18 19 19 20 20 18 18 19 19 20 20 21 23 23 21 20 20 22 24 26 26 28 29 30 31 32 32 33 33 34 35 36 36 36 37 36 35 33 30
5 5 3 4 3 3 3 5 6 4 2 5 7 7 7 6 6 6 5 5 5 5 6 6 5 5 5 6 7 7 6 6 6 6 6 5 5 7 9 10 11 12 13 13 14 16 17 19 20 20 21 21 20 20 21 22 22 22 22 23 23 22 21 21 21 23 24 25 27 28 29 30 31 32 32 32 33 33 33 33 33 33 33 31 29 27
5 5 5 5 4 4 5 9 8 4 4 5 8 8 8 7 7 7 6 6 6 6 6 7 6 5 3 4 6 8 7 6 6 7 6 5 7 8 9 10 11 12 13 13 14 16 18 20 20 20 22 23 21 21 22 22 22 22 21 21 21 21 22 22 22 23 24 26 27 29 29 30 30 30 31 31 31 31 31 30 30 30 30 29 27 26
Wind_Direction
147 172 197 212 218 214 210 215 225 245 264 288 329 296 286 290 276 282 124 160 165 188 232 244 255 263 261 215 189 182 186 199 209 190 169 170 164 163 162 155 149 133 118 121 123 121 120 122 122 115 108 104 101 103 105 104 106 106 111 113 106 106 110 111 110 108 107 106 104 100 96 92 88 89 90 87 86 85 85 84 83 83 83 86 86 85
118 203 221 219 222 233 233 225 221 234 255 260 264 284 278 263 265 273 170 154 105 65 255 268 272 268 270 254 186 163 179 202 206 193 182 180 169 166 162 155 144 123 129 138 135 133 129 125 126 121 113 110 107 109 109 108 111 111 114 117 114 119 122 121 121 118 114 112 111 106 102 98 93 92 91 88 86 87 87 86 85 84 84 85 85 84
226 231 231 228 235 240 244 267 237 231 249 253 252 272 264 261 275 284 104 127 103 83 267 278 281 271 267 266 200 172 188 202 203 195 187 179 169 169 164 156 145 135 147 151 142 139 133 128 128 126 120 116 114 114 112 108 111 110 112 118 123 127 128 128 128 125 118 115 113 110 107 104 98 93 93 92 91 90 89 87 86 85 85 85 84 83
214 231 225 224 238 238 220 201 250 270 277 242 233 242 247 252 264 270 123 172 179 202 263 292 290 273 264 265 231 187 183 167 155 155 141 158 160 163 161 153 149 150 155 154 145 140 139 136 131 129 126 124 125 124 118 114 112 110 110 118 127 129 128 129 127 122 120 116 112 108 105 103 99 96 96 95 93 92 91 88 87 86 86 85 83 82
233 235 206 209 216 216 209 200 200 225 249 229 217 218 238 242 234 240 229 187 185 221 238 273 292 270 241 243 233 166 101 79 97 91 64 41 126 132 134 141 150 154 155 152 146 143 143 139 132 133 134 134 137 134 125 119 116 114 113 117 123 125 124 124 123 122 121 116 110 107 103 101 99 96 95 93 90 89 89 87 87 86 85 85 83 82
244 228 164 193 198 187 202 220 194 190 236 244 218 213 223 237 250 270 312 0 337 288 226 159 281 271 235 235 219 140 127 172 153 159 175 181 135 121 130 145 150 147 147 145 144 144 142 137 134 137 139 141 142 139 132 125 124 122 120 120 119 118 119 119 119 119 118 114 111 112 110 106 101 95 90 90 90 89 90 89 89 88 86 85 82 80
237 167 142 173 177 173 198 233 192 174 214 253 256 237 215 225 260 311 340 346 279 283 264 143 219 271 290 272 197 162 197 199 178 195 198 186 173 156 155 158 151 146 145 141 141 142 140 140 141 140 143 148 147 143 138 132 131 129 127 127 125 123 122 121 122 123 122 121 124 122 116 110 106 102 97 97 96 95 94 93 92 90 87 84 81 79
127 140 143 153 163 178 195 223 190 168 184 238 284 354 94 177 264 288 288 252 241 300 280 179 183 274 282 256 180 169 190 204 201 205 204 190 181 176 171 166 159 156 150 144 144 143 144 148 147 143 146 151 151 147 142 138 136 135 135 136 134 132 133 135 139 143 143 140 135 126 118 112 110 110 110 107 103 100 98 95 92 90 88 85 83 80
113 164 173 169 180 200 197 218 192 173 178 221 244 44 73 86 44 322 253 251 284 318 265 191 161 255 276 243 156 167 188 214 216 205 202 192 179 178 176 168 162 158 151 149 149 146 147 149 148 147 148 151 154 151 147 143 140 139 140 141 140 139 139 142 147 148 147 143 135 127 121 116 114 115 115 112 108 104 100 96 93 91 89 87 85 82
52 180 176 175 194 206 166 24 337 173 175 191 141 83 73 76 62 33 254 248 305 275 238 195 166 215 271 247 142 168 219 228 224 204 194 187 177 179 174 164 161 157 153 153 147 142 141 142 146 151 152 153 155 153 150 145 143 143 144 145 144 142 141 142 145 145 143 140 134 128 124 121 120 119 118 115 111 107 104 100 96 94 91 89 86 82
108 126 254 182 195 166 119 52 9 77 135 155 138 94 86 93 71 56 241 115 306 264 226 187 182 196 267 239 168 192 222 214 209 184 178 177 174 178 171 162 160 156 154 152 143 137 135 137 144 150 152 153 153 151 149 146 145 146 147 148 144 141 142 141 143 143 140 138 134 131 128 126 125 124 121 118 113 110 107 103 100 98 95 91 87 83
128 132 84 1 51 114 108 71 13 14 99 140 127 110 114 67 47 39 250 143 227 259 222 183 189 194 229 246 188 194 217 210 195 173 173 174 173 176 169 162 158 154 154 149 142 136 135 140 147 149 151 153 151 149 149 148 149 149 149 150 145 141 144 144 144 144 140 138 135 132 130 127 127 127 124 120 116 114 110 107 106 103 99 94 89 84
212 204 161 100 298 170 137 103 37 356 324 156 129 123 129 136 0 241 202 184 225 253 266 197 197 208 231 247 242 232 230 241 196 167 168 169 171 174 167 162 158 155 154 149 148 144 143 151 154 153 152 153 152 152 152 153 154 154 154 153 148 145 147 147 146 144 140 137 135 133 132 131 130 129 125 122 120 120 119 117 114 107 101 95 89 84
239 225 173 159 284 197 175 172 177 234 204 179 159 151 160 172 220 234 212 225 242 248 285 328 174 255 270 256 248 238 217 5 38 147 163 166 169 171 164 158 154 155 158 153 153 153 155 161 161 156 154 153 154 155 156 158 159 158 157 156 152 149 150 149 146 143 140 137 137 137 136 135 133 130 127 128 129 131 130 126 118 109 103 97 91 86
205 267 188 176 182 180 191 202 184 146 167 192 178 170 184 173 193 224 205 226 257 280 304 312 147 195 219 233 251 253 71 19 9 121 146 154 159 157 150 151 153 158 162 158 156 159 162 164 162 157 156 157 158 159 160 160 160 161 160 159 155 151 151 150 147 145 142 140 140 140 138 136 136 135 135 136 137 136 133 127 120 112 106 100 93 86
207 259 176 164 152 166 190 211 165 122 154 210 174 187 219 195 195 237 206 170 162 337 291 233 228 222 205 180 133 65 60 30 4 94 133 142 148 148 151 157 161 164 166 163 162 162 162 163 162 159 160 162 162 163 163 162 163 164 163 161 158 154 154 152 151 148 146 144 142 141 140 140 141 142 141 140 138 136 131 126 121 115 108 101 94 89
195 257 124 117 120 164 188 211 176 148 167 185 171 199 208 143 176 233 282 75 104 276 254 181 244 284 279 267 151 117 87 57 349 139 145 151 152 155 165 167 167 171 169 167 167 165 162 162 164 165 165 167 167 167 167 166 167 167 165 163 159 156 156 155 154 151 148 147 145 144 144 145 146 145 142 140 137 133 129 125 121 117 111 105 100 96
167 203 275 142 146 186 313 275 165 69 104 139 183 197 134 59 37 185 276 349 168 252 259 177 212 230 198 244 167 131 148 186 219 198 158 157 162 167 175 173 173 172 167 165 164 164 164 164 167 170 171 172 172 172 171 170 170 170 168 165 162 160 159 158 157 155 153 151 149 148 148 148 148 145 141 139 135 132 129 126 123 120 116 112 107 103
152 184 271 323 79 28 349 74 119 5 60 129 196 212 126 129 233 151 196 251 205 240 279 209 208 206 196 210 174 179 202 196 197 200 181 174 176 178 177 174 173 169 166 169 168 167 168 169 171 173 174 176 176 176 175 172 172 171 170 168 166 164 162 162 160 157 156 155 153 151 151 150 148 145 142 139 136 134 132 130 128 125 120 116 113 110
148 191 244 316 0 109 88 175 175 199 233 54 332 289 105 154 189 167 195 224 190 236 274 249 214 217 215 195 176 194 207 188 181 194 193 185 184 184 178 174 176 176 176 176 174 174 172 173 176 176 177 177 178 179 177 174 174 173 172 171 168 166 165 164 163 160 158 157 156 154 153 152 149 147 144 141 139 138 137 134 131 127 123 121 119 115
118 200 217 314 338 125 164 207 192 188 188 182 202 214 196 173 125 149 240 214 190 231 254 261 265 251 240 194 180 193 199 184 179 187 193 190 186 184 179 178 180 181 182 179 175 175 172 173 177 178 179 179 178 179 178 177 176 174 175 174 171 169 167 165 164 162 161 160 159 158 156 154 152 149 145 143 143 144 141 136 132 129 129 126 120 115
167 188 178 162 236 215 218 217 204 197 192 190 194 194 192 185 158 198 242 208 194 225 213 232 264 252 245 325 184 181 185 184 182 183 188 188 184 183 183 183 184 183 182 180 177 174 172 173 175 176 177 178 178 179 180 179 177 176 177 176 174 172 170 168 167 166 164 163 163 162 159 156 153 150 148 148 150 148 143 138 135 134 133 127 121 115
125 125 184 192 200 217 236 222 183 193 187 200 220 199 181 183 181 200 224 199 182 229 196 166 276 263 237 336 9 82 139 174 178 177 182 187 185 183 182 182 184 184 181 178 175 172 172 173 173 175 177 179 180 181 181 181 179 178 178 177 176 174 173 172 170 170 169 167 166 164 162 159 156 153 153 155 155 152 146 142 140 140 136 129 125 118
78 111 196 213 263 339 325 341 43 37 59 322 255 199 183 201 200 201 215 159 165 221 183 174 259 263 268 356 352 2 46 88 154 170 176 182 182 181 180 177 180 181 176 174 172 169 168 169 172 176 179 181 182 182 182 182 182 180 179 179 179 177 176 175 174 174 173 170 168 167 164 162 159 159 160 161 160 156 151 148 147 147 143 135 129 122
154 170 165 178 246 271 288 252 333 339 197 214 226 204 206 209 197 199 205 71 247 221 174 190 243 248 260 317 302 323 57 79 120 155 163 171 177 180 177 172 174 175 172 171 169 166 167 170 176 181 184 183 182 182 184 184 184 183 182 182 181 180 178 177 177 177 175 173 171 169 168 166 164 166 168 167 165 161 157 156 156 155 151 146 140 131
179 179 165 183 217 227 229 218 208 195 181 222 214 201 212 207 192 197 190 209 240 213 160 210 240 253 302 275 210 186 122 122 134 139 151 165 171 172 170 169 171 173 174 174 171 171 172 176 182 185 186 184 183 184 185 186 185 184 183 184 184 182 180 180 181 180 178 176 175 173 172 171 170 172 174 172 170 166 163 163 165 165 162 158 152 142
146 185 192 198 216 226 226 221 183 147 152 205 208 197 207 207 198 200 206 219 225 199 209 228 230 253 270 230 218 212 176 174 176 162 163 163 163 168 171 171 170 170 173 172 170 171 174 180 187 188 187 185 185 187 188 187 186 184 184 186 186 184 183 183 184 182 180 180 179 177 178 177 177 179 179 177 174 171 171 173 174 174 172 169 164 152
124 206 210 207 224 231 210 171 169 160 176 202 203 199 203 202 198 200 218 221 175 178 246 228 179 229 240 204 213 217 186 191 190 182 187 171 160 163 159 157 160 161 164 167 170 177 182 188 190 188 187 186 187 189 190 188 187 187 187 187 186 186 186 186 185 184 183 182 182 182 183 182 182 184 183 181 179 178 178 181 183 183 182 180 174 163
156 217 214 203 229 238 217 178 176 172 192 202 198 204 200 196 199 203 219 223 172 203 245 197 158 222 233 190 210 210 188 198 191 177 176 156 146 148 148 155 163 164 168 176 182 187 190 193 190 188 189 187 186 188 189 188 188 188 189 188 186 187 188 188 187 185 185 185 186 186 187 187 187 188 188 185 184 185 186 188 189 190 190 188 185 179
176 226 206 188 228 243 232 223 199 160 194 229 212 215 206 200 203 204 218 223 208 227 242 212 190 246 242 181 206 200 179 185 150 130 144 147 151 153 154 165 172 175 181 186 192 195 194 194 192 190 189 187 187 189 188 188 189 189 189 188 188 189 189 189 188 187 187 188 188 188 189 189 190 192 192 190 190 191 191 193 194 197 199 196 194 193
210 219 179 157 226 248 234 227 218 181 203 234 239 234 222 210 207 210 221 221 215 235 244 240 253 263 244 142 175 137 131 132 118 127 144 153 160 154 158 174 179 185 193 195 199 198 195 195 193 190 190 191 192 191 189 189 189 188 189 189 190 190 190 191 190 190 190 190 189 190 190 191 192 194 196 195 195 196 196 197 199 202 205 202 203 205
192 214 100 129 218 245 225 208 208 173 174 258 255 241 225 206 203 213 220 215 209 226 237 237 244 245 190 118 85 70 111 127 137 150 145 151 159 155 170 185 188 196 200 200 201 195 193 195 192 192 195 196 195 192 191 189 187 189 191 191 192 191 191 192 192 192 192 190 190 191 192 194 195 197 199 199 199 200 200 202 205 207 209 208 211 213
164 176 156 160 213 250 227 176 174 133 111 256 255 241 214 196 209 221 221 218 214 215 222 230 236 228 167 144 145 149 145 145 163 167 152 158 166 171 186 192 195 203 203 200 198 195 198 199 197 198 198 195 195 194 194 191 189 192 194 193 192 191 191 193 194 193 192 191 191 193 194 196 198 200 202 202 202 203 203 205 209 212 213 213 215 218
170 183 191 173 209 257 177 126 132 171 215 234 263 247 192 191 204 216 220 219 213 212 224 238 232 153 151 169 173 179 190 188 196 204 189 166 167 185 202 202 203 204 199 199 199 198 200 199 199 200 198 196 197 197 196 196 195 196 195 193 192 191 192 194 194 193 193 193 194 195 195 198 201 203 204 205 204 204 205 209 213 215 216 217 219 222
180 194 197 174 193 233 126 127 160 217 229 248 334 331 210 194 201 213 224 222 210 213 229 241 229 162 168 194 185 185 208 216 216 224 208 174 173 186 201 206 204 198 194 196 195 194 196 195 195 196 196 198 198 196 196 197 198 197 195 192 193 194 195 195 193 194 195 195 196 196 196 200 204 205 206 207 206 207 208 211 215 218 219 220 223 226
183 191 189 168 175 135 149 182 204 233 248 347 343 321 348 142 182 209 235 238 218 208 217 233 234 204 177 194 191 167 191 201 243 245 207 193 193 190 194 202 198 196 197 192 188 191 194 195 195 195 196 197 195 194 195 197 196 195 193 193 195 196 196 195 194 195 196 196 196 197 199 203 205 206 208 208 208 208 211 213 216 219 221 222 225 227
183 182 182 195 188 153 183 207 241 321 299 245 269 242 171 147 169 182 220 246 229 199 196 223 237 217 179 177 162 107 91 79 313 280 237 216 211 185 183 194 188 188 188 186 193 199 198 198 198 197 196 194 193 195 196 195 195 194 193 194 196 196 196 195 196 197 197 197 199 200 203 205 207 208 209 209 209 210 213 215 217 221 223 223 226 227
167 175 181 201 194 134 157 199 247 275 258 222 213 232 240 175 165 153 170 270 255 194 185 205 228 217 176 155 142 114 89 85 262 265 246 215 198 155 127 124 140 156 160 162 173 182 188 194 197 196 195 193 194 197 197 194 193 192 193 194 195 194 194 196 199 200 199 200 202 203 206 208 209 210 210 210 212 214 216 217 219 223 224 224 227 230
76 98 152 192 191 157 171 198 213 227 238 222 226 253 324 35 118 99 62 297 260 210 188 197 220 212 161 152 153 132 122 200 241 262 262 206 186 158 132 108 99 119 138 148 155 161 172 183 187 190 192 192 194 196 196 194 193 192 192 193 193 193 195 200 203 203 202 204 206 207 209 210 211 212 213 214 216 217 218 219 221 223 225 225 227 230
98 119 177 197 202 187 190 213 232 226 237 224 215 228 288 261 102 90 42 267 240 257 247 197 211 203 153 155 159 153 174 215 228 258 299 155 146 130 133 132 117 118 127 140 155 161 164 170 175 179 186 190 193 193 194 194 192 191 193 193 193 195 201 206 207 206 206 209 210 210 211 212 213 215 216 218 219 219 220 220 221 222 223 223 225 228
124 160 182 198 213 206 202 218 267 257 231 215 197 196 210 189 80 116 205 221 180 232 309 147 172 167 146 153 166 180 196 187 149 124 62 92 107 94 103 120 124 129 134 143 154 160 161 166 173 178 183 189 191 189 191 191 189 190 193 193 194 201 208 212 213 211 211 211 212 212 214 215 217 218 220 221 221 220 219 220 221 222 223 223 224 226
149 144 159 191 205 216 212 226 288 270 224 148 129 182 198 144 134 187 195 100 149 184 207 137 148 149 153 166 178 175 143 106 110 103 77 93 114 108 104 112 116 123 136 144 152 160 161 162 168 174 178 185 188 189 190 190 189 192 193 194 202 212 218 219 216 214 212 212 213 216 217 218 219 220 220 221 220 219 218 218 220 222 222 222 223 226
155 149 178 196 181 147 185 209 227 254 206 141 121 103 245 186 185 174 128 60 104 158 156 140 149 162 166 167 164 139 122 110 104 99 93 100 115 121 125 130 133 139 144 147 154 164 164 162 166 172 176 183 189 192 192 191 192 193 195 202 214 222 222 219 217 215 214 214 216 218 219 220 220 220 220 221 220 218 217 217 218 219 220 221 222 224
170 167 183 198 181 155 183 208 206 194 186 165 145 158 193 184 173 159 142 108 92 154 156 148 174 189 174 157 152 140 129 124 120 116 111 108 118 134 141 143 149 154 157 160 164 170 170 166 165 170 177 185 192 194 195 195 195 194 199 210 221 223 221 219 218 216 215 216 217 219 220 220 221 221 221 220 219 217 216 216 217 217 218 220 221 223
202 180 160 179 186 165 171 198 198 165 167 160 146 188 160 131 98 124 134 128 143 184 177 171 191 191 159 143 146 143 143 149 139 133 133 129 135 147 151 155 162 163 166 171 173 176 177 171 168 171 177 187 195 196 197 199 197 197 205 218 225 224 223 222 218 216 217 218 218 219 220 220 220 221 221 220 219 217 216 216 216 216 217 219 220 223
242 151 94 103 171 162 131 143 143 152 157 140 54 357 117 110 90 99 116 133 167 175 161 157 173 169 146 135 136 145 163 160 143 138 142 139 143 148 148 158 167 166 169 178 183 185 183 176 175 180 184 191 199 202 203 204 204 207 217 228 229 228 228 225 220 219 219 219 219 220 220 220 219 220 220 220 220 220 220 219 218 218 218 218 220 224
247 158 115 167 193 185 178 140 133 152 165 149 119 68 83 97 107 105 112 133 146 138 127 122 130 139 140 138 143 159 171 158 152 162 157 147 156 163 160 167 174 178 185 193 193 189 184 181 185 192 198 204 208 210 211 212 215 222 230 235 235 235 233 228 224 223 221 220 220 220 220 220 220 219 219 219 220 220 220 221 221 219 220 220 220 222
191 150 153 206 214 172 137 170 166 138 154 165 160 160 156 159 152 114 109 116 112 108 110 108 115 129 145 158 157 157 161 163 168 175 178 180 180 176 178 183 187 194 201 202 198 193 190 191 195 200 207 214 217 220 222 224 228 232 234 235 238 238 235 232 228 225 223 222 220 220 221 221 221 220 220 220 220 220 220 221 221 221 223 225 224 224
131 149 165 162 157 121 88 180 169 99 17 275 242 227 212 185 168 154 136 124 112 108 107 102 107 129 152 169 159 143 152 176 184 180 185 195 192 187 195 196 198 205 209 207 207 206 203 204 206 208 214 222 226 228 232 235 238 240 238 237 237 237 235 233 229 226 224 222 221 221 222 221 222 222 222 222 222 222 223 224 225 225 227 229 231 233
135 169 166 124 146 199 195 181 172 144 160 222 221 216 212 188 161 162 161 147 145 147 136 122 111 116 137 156 153 147 162 188 192 181 181 192 195 196 203 203 205 215 219 216 216 218 217 218 219 220 224 228 230 232 237 241 243 244 243 240 238 236 235 234 230 226 225 223 223 223 223 222 223 224 224 224 224 224 225 227 229 231 232 234 235 237
164 181 160 145 184 217 178 169 170 151 156 199 203 199 199 183 164 175 186 173 169 175 164 147 141 141 156 172 167 163 172 191 195 183 181 202 210 209 213 214 214 220 224 221 220 225 229 231 231 230 232 234 233 234 239 242 245 247 247 247 244 241 238 235 231 228 227 226 225 226 225 224 223 223 224 225 226 226 226 227 229 232 235 236 237 237